Location: Baia Mare
(47.6567°N, 23.5850°E)
Time: 14:38:25
(UTC+03:00)

ISS - Pass Details

Date: 11 July 2019
Orbit: 409 x 418 km, 51.6° (Epoch: 21 July)

Event Time Altitude Azimuth Distance (km) Brightness Sun altitude
Exits shadow 01:54:13 39° 93° (E) 634 -2.9 -20.0°
Drops below altitude 10° 01:56:33 10° 71° (ENE) 1,481 -0.7 -19.9°
Sets 01:58:39 0° 67° (ENE) 2,344 0.4 -19.9°
